Theta_e
326 320 314 311 310 308 307 300 295 292 297 293 295 298 298 309 313 310 308 312 309 316 318 320 319 317 313 308 310 315 316 311 311 299 295 317 334 335 338 338 339 338 338 339 339 339 340 345 345 346 346 346 346 346 346 346 346 346 345 345 345 345 345 345 345 344 344 345 345 345 344 344 343 342 342 341 342 343 344 343 343 342 345 345 346 346 346 347 347 346 345 345 346 347 346 345 345
318 312 309 310 310 304 301 297 290 288 293 294 296 299 300 306 307 306 307 309 313 316 319 319 320 319 318 317 317 317 316 319 321 320 324 330 334 336 338 339 340 337 338 338 339 339 339 342 345 345 345 346 345 345 345 345 346 346 345 344 345 345 344 344 344 345 346 346 346 345 344 343 343 344 345 344 345 345 344 344 343 343 344 345 345 346 346 345 345 345 345 346 344 345 345 344 344
317 310 307 303 302 302 300 297 294 286 290 291 293 298 305 304 304 306 310 313 318 320 321 320 320 320 318 316 312 313 309 324 325 326 325 333 328 331 337 339 340 339 338 338 339 340 339 342 345 345 344 345 345 344 345 345 345 344 344 344 343 342 343 345 345 346 346 345 345 345 344 345 345 344 345 345 345 345 344 345 344 344 344 344 346 346 345 343 345 345 344 344 345 343 344 344 341
312 313 311 301 303 298 293 291 288 287 290 290 293 300 304 305 306 309 314 317 319 320 319 318 314 320 316 312 313 321 318 319 325 325 324 328 329 335 337 338 341 338 339 338 339 339 339 342 344 344 344 344 344 344 344 344 344 344 344 344 344 344 344 344 346 346 345 345 345 345 344 344 345 345 344 344 346 346 346 345 344 343 344 346 346 344 344 342 343 345 346 346 344 344 342 342 343
308 310 305 299 296 298 293 292 287 286 290 289 293 299 306 308 309 310 314 315 317 318 317 317 313 318 322 319 322 313 316 325 326 330 328 331 336 336 337 339 339 338 338 339 339 339 338 343 343 344 344 344 344 344 344 343 344 344 343 344 344 342 345 345 345 345 344 344 344 344 344 345 345 344 344 345 344 345 344 342 340 343 341 343 341 343 343 343 344 345 346 346 346 345 345 346 345
302 303 305 302 300 300 295 293 295 295 295 295 297 300 305 308 311 312 312 317 317 318 319 316 313 314 316 319 323 319 325 317 326 328 330 330 335 338 338 338 338 337 339 338 338 339 337 343 343 344 344 343 343 343 343 343 342 342 342 344 344 343 344 345 344 344 343 343 343 344 344 345 345 345 345 345 344 343 342 342 342 341 342 340 342 341 341 344 343 344 345 345 345 346 345 345 345
305 300 299 298 297 297 290 290 294 295 301 304 301 303 307 308 311 313 313 314 315 317 320 317 319 317 312 320 323 328 330 331 328 329 333 333 336 337 339 338 336 335 336 336 337 338 339 342 343 342 343 342 342 342 343 342 343 342 342 342 342 343 344 344 344 344 342 342 341 342 344 345 345 345 345 345 344 343 341 339 337 337 338 340 337 339 343 343 342 345 346 345 345 345 345 345 345
306 302 298 293 294 298 295 296 298 296 303 308 307 307 309 310 311 312 313 310 311 312 316 319 319 316 314 324 314 326 331 332 332 334 334 334 335 336 336 336 336 335 335 336 336 339 343 341 343 342 343 342 343 341 342 342 342 341 341 341 342 342 343 343 342 342 341 341 341 340 341 344 344 345 344 344 344 344 340 341 340 340 339 340 341 341 341 342 342 346 346 346 345 345 344 344 344
301 300 299 298 295 296 295 297 299 303 305 309 309 313 317 311 312 311 310 312 314 316 316 317 318 310 315 317 317 325 328 333 334 335 335 334 334 335 335 335 334 333 334 335 336 337 337 342 342 341 341 341 341 342 341 340 341 342 342 341 341 342 341 342 343 342 340 339 339 339 344 345 344 345 345 344 344 343 341 337 339 340 339 341 339 341 342 344 346 345 345 344 345 345 345 345 345
299 297 293 291 293 296 295 295 297 303 308 314 314 311 311 312 313 313 313 312 314 315 316 318 318 312 316 314 317 322 326 333 333 333 334 335 335 334 334 335 336 334 334 334 336 336 339 341 342 340 342 343 341 341 340 341 341 340 343 343 343 343 342 340 341 340 340 341 340 342 344 344 344 344 345 345 344 344 344 342 340 342 341 342 342 342 343 345 345 345 345 345 344 345 345 345 345
294 294 296 293 294 292 294 295 297 302 305 309 311 313 313 313 313 310 311 313 314 314 316 317 315 315 315 315 318 329 332 333 331 329 334 335 335 332 333 336 336 336 334 334 337 335 335 338 341 342 343 343 343 342 342 341 342 342 343 343 343 343 342 340 339 340 340 341 341 342 342 345 345 344 344 344 344 344 342 340 339 339 340 339 342 344 344 345 345 345 345 344 346 345 345 345 345
293 293 290 289 293 294 294 296 300 301 304 306 307 311 313 313 311 308 310 310 311 312 313 317 312 316 311 314 317 325 330 330 330 332 334 336 335 334 336 337 336 336 336 334 334 335 336 335 337 341 342 341 342 341 342 342 342 343 343 343 343 342 342 341 340 341 341 342 341 342 344 345 344 344 344 344 344 344 344 339 339 339 339 340 340 341 344 344 344 345 344 345 345 345 345 346 345
293 290 290 293 291 295 297 298 299 304 300 303 307 312 315 313 311 312 312 312 313 311 312 319 319 316 308 312 321 326 326 329 331 331 334 334 334 335 335 335 335 335 335 335 334 332 334 334 335 337 341 342 343 342 342 342 341 342 343 343 341 339 338 338 338 339 342 342 343 342 343 344 345 344 344 344 343 343 344 343 341 341 340 340 339 337 342 342 343 344 344 344 345 345 346 345 346
293 292 291 291 293 297 297 297 299 298 298 303 309 314 315 312 313 313 311 311 314 313 318 322 320 317 313 316 316 320 324 330 330 332 332 334 335 335 334 333 334 335 333 334 333 332 332 333 334 335 335 335 335 338 342 341 342 340 341 342 342 339 337 340 341 343 343 342 342 342 343 344 344 344 345 345 344 343 343 343 343 343 342 341 339 341 343 343 343 343 343 344 344 345 345 345 346
296 292 289 291 295 295 298 296 299 298 298 304 310 313 314 316 316 317 315 312 314 321 324 325 322 316 304 309 308 319 324 329 331 333 333 334 334 334 332 334 334 335 335 333 333 332 332 332 333 333 335 334 334 334 333 338 341 339 339 342 341 342 341 342 342 343 343 344 345 344 344 345 344 343 344 345 344 343 343 343 343 342 343 343 343 342 343 344 344 344 344 344 344 345 345 345 346
295 295 293 295 294 296 296 298 300 299 300 307 312 314 313 316 319 316 318 317 316 322 323 316 324 314 317 316 318 323 327 329 331 332 332 331 332 330 331 331 331 332 333 332 332 332 333 333 332 333 333 333 334 333 333 335 340 342 342 342 342 341 343 343 343 344 343 344 344 344 343 342 342 338 343 341 345 344 343 343 343 342 343 343 343 343 343 343 344 344 344 344 344 345 345 345 345
294 295 294 291 294 296 297 298 300 296 300 309 313 312 309 311 318 319 322 321 316 317 319 321 319 325 320 321 325 327 329 331 333 330 329 327 327 327 329 330 332 332 333 332 331 331 331 332 333 332 333 333 334 334 334 334 338 340 338 342 342 343 344 343 344 343 342 340 341 341 340 339 336 335 334 338 346 345 345 345 343 343 343 343 343 343 343 343 343 343 344 344 345 345 345 345 344
293 293 293 293 293 296 299 301 302 303 305 308 311 311 311 307 312 315 318 317 318 319 318 321 323 322 324 325 327 327 328 328 328 327 325 323 323 325 327 328 329 328 331 332 332 331 330 332 331 331 331 332 333 333 333 334 333 336 334 336 338 339 341 342 338 340 340 335 339 336 336 337 337 335 335 341 343 345 345 345 345 345 343 343 343 344 343 344 343 344 344 345 345 345 345 339 337
295 293 294 294 294 302 303 301 304 308 306 310 310 311 310 308 312 313 310 311 314 314 316 319 318 320 323 325 326 326 326 325 325 324 322 321 323 324 324 326 327 327 328 330 332 331 331 330 332 332 330 330 331 333 333 334 333 333 334 335 337 338 339 339 335 336 334 334 334 334 338 334 337 337 335 342 343 342 343 343 344 346 346 345 344 344 345 345 344 345 345 345 345 343 339 335 335
298 299 296 298 300 305 305 307 307 309 311 309 310 310 311 311 311 315 310 309 312 311 312 314 315 315 318 322 324 325 325 324 322 321 321 321 321 322 323 324 326 327 328 330 331 331 331 330 330 331 331 330 330 332 333 334 332 333 334 335 335 334 334 336 335 334 333 333 333 334 334 336 337 333 339 340 340 335 335 339 341 342 345 346 346 345 343 344 345 344 343 344 342 338 336 336 336
302 299 296 302 304 302 305 310 311 311 312 310 309 310 310 312 312 311 310 306 307 311 315 315 314 316 317 320 321 322 322 322 321 321 321 320 321 320 322 323 325 326 328 330 329 328 329 329 329 329 330 330 330 330 332 335 333 333 334 336 336 334 334 334 334 333 333 333 332 333 335 337 333 332 331 332 332 332 332 333 333 334 336 337 344 340 339 338 339 337 338 338 335 336 337 336 336
304 302 303 305 305 304 306 310 312 312 312 310 308 308 308 314 315 313 310 302 303 311 315 318 319 319 318 319 321 321 320 319 319 319 319 320 320 321 323 325 326 326 331 327 327 328 328 330 330 329 329 328 329 329 331 335 333 332 333 336 336 334 335 333 334 333 332 333 332 334 337 333 331 330 329 329 330 329 330 331 331 332 333 336 339 339 339 338 337 336 336 335 335 336 336 336 336
301 304 305 306 305 305 307 309 309 311 308 308 306 311 313 312 312 316 314 311 314 318 319 319 319 319 320 321 321 320 320 319 320 321 322 321 322 322 322 323 324 324 325 326 328 330 330 330 330 330 328 327 328 330 330 331 330 331 332 336 334 334 336 332 332 333 334 333 332 334 335 331 330 329 329 329 329 328 329 330 331 331 333 333 337 337 336 335 334 333 333 333 333 334 335 336 336
305 301 304 306 309 308 311 311 312 311 311 309 312 314 311 311 308 316 314 317 319 318 318 317 318 318 318 318 320 319 320 319 320 322 323 322 324 324 323 324 326 327 327 327 326 327 329 329 331 330 331 327 326 328 329 330 330 331 335 337 333 343 334 331 331 333 332 330 333 333 339 329 328 327 327 328 328 327 328 330 330 331 333 334 335 336 333 333 332 332 332 332 332 333 334 335 336
305 303 305 307 311 311 312 312 311 311 311 313 313 311 310 312 312 315 313 317 319 319 317 316 317 317 317 317 317 317 317 317 319 321 322 322 324 326 324 324 326 328 328 329 328 328 328 330 332 331 329 328 327 328 331 331 331 332 333 333 332 339 329 330 331 331 328 329 330 331 336 328 327 327 327 327 327 327 327 328 328 329 329 330 334 333 333 332 331 331 332 331 331 331 331 332 334
304 305 306 307 309 310 312 312 312 312 313 314 311 310 312 314 317 312 315 318 320 320 317 317 317 317 318 318 319 318 317 317 318 319 320 322 323 324 323 323 325 327 328 330 331 331 332 331 331 332 332 332 330 330 330 330 331 331 331 331 332 332 328 328 330 326 327 327 328 329 330 331 326 326 327 327 326 325 326 327 328 327 327 328 330 330 332 331 331 331 331 331 330 330 331 332 336
307 306 307 308 308 309 309 309 308 311 311 311 309 308 310 313 311 305 316 319 320 316 316 318 317 317 317 318 319 320 320 319 319 318 319 321 322 322 323 325 324 324 327 327 330 331 333 328 328 329 331 338 330 331 332 328 329 327 328 327 326 325 326 329 328 327 327 327 328 327 329 331 328 326 327 327 326 325 325 326 327 327 327 327 328 329 329 332 331 331 331 330 330 330 331 332 333
307 307 307 306 308 310 310 310 309 310 308 308 309 306 309 309 311 308 314 318 319 315 316 316 316 314 315 316 316 318 319 320 321 319 318 320 321 322 323 324 324 324 323 326 328 329 327 326 326 328 327 331 329 326 328 326 326 328 329 326 326 326 328 325 326 327 331 328 327 326 328 328 332 326 326 327 326 325 325 325 326 327 327 326 328 328 328 328 329 329 330 331 331 331 331 330 333
306 308 302 303 304 305 306 306 307 309 306 309 305 303 303 306 306 311 312 318 315 314 315 315 314 313 313 314 316 317 318 320 320 320 320 322 323 323 322 325 326 324 324 326 325 326 325 325 329 327 326 327 326 328 327 325 325 326 327 325 328 328 324 324 325 325 326 327 327 326 328 330 329 327 326 327 329 323 324 325 325 327 327 327 327 328 327 327 327 326 328 328 329 326 326 330 331
306 303 302 300 295 298 305 306 307 307 308 310 306 290 296 301 308 312 314 312 311 313 314 313 311 311 312 314 315 316 318 319 319 320 321 322 322 319 320 323 327 323 321 319 321 322 327 326 329 329 330 325 331 326 328 324 326 326 329 325 329 325 324 323 327 324 329 327 326 325 327 330 327 326 326 325 324 324 323 324 325 326 326 327 326 327 325 326 326 325 327 326 329 325 327 330 329
298 299 296 292 289 293 300 305 305 304 307 305 305 294 295 300 305 310 313 312 310 311 312 312 310 310 313 314 315 315 317 318 319 319 320 322 322 321 321 322 323 322 322 322 323 320 325 326 332 324 328 321 323 324 324 326 327 325 325 327 326 325 327 324 323 324 324 325 325 324 327 330 326 325 327 325 324 323 323 323 324 325 326 327 325 325 325 325 325 324 327 325 324 325 327 330 327
295 293 289 289 291 295 298 304 304 301 305 305 301 294 295 300 305 309 312 310 309 311 312 311 311 311 313 315 315 315 315 317 319 319 319 320 321 321 322 324 323 323 320 320 320 322 325 327 327 321 320 321 321 324 323 323 325 325 326 332 327 326 325 325 324 324 325 324 325 323 325 331 325 324 325 325 324 323 322 323 323 324 326 326 324 324 326 324 324 324 326 325 323 324 327 326 328
291 289 289 292 291 292 295 301 302 305 305 305 300 295 298 301 305 308 310 308 308 308 308 309 310 312 314 314 314 314 315 316 317 317 318 318 319 320 322 325 325 325 322 319 320 320 321 322 326 320 323 322 322 323 324 325 325 326 327 326 329 325 324 324 324 325 324 324 323 324 324 329 327 324 325 325 325 324 323 323 323 323 326 324 324 324 324 325 323 324 324 327 322 323 325 326 327
291 289 289 291 292 292 292 297 302 303 303 301 303 300 299 303 306 308 309 308 305 305 305 306 309 311 311 310 312 313 315 314 315 315 317 317 318 320 322 327 324 322 322 321 319 321 320 321 323 328 323 323 322 323 325 325 326 325 324 324 330 323 324 324 324 324 324 324 323 324 325 325 331 326 324 326 325 329 324 323 323 323 325 323 323 323 323 323 323 323 324 325 326 324 324 326 326
288 289 289 291 292 292 294 292 300 303 303 302 301 301 301 303 306 307 308 308 306 306 306 308 309 310 309 308 310 313 313 313 315 314 316 317 319 320 321 322 322 321 320 321 320 321 321 320 323 321 324 322 323 323 325 326 325 325 323 323 322 325 322 324 324 324 324 323 323 325 327 324 326 326 326 325 327 327 323 323 323 323 324 322 322 322 322 324 324 322 324 324 327 327 326 327 327
293 293 291 292 291 292 294 297 301 303 300 300 300 298 301 304 305 308 309 308 306 306 306 305 306 307 307 309 310 311 311 313 315 317 318 318 318 320 322 323 323 321 321 322 324 322 323 322 322 322 323 323 324 324 325 325 323 323 322 322 321 322 320 327 325 323 323 323 327 325 326 323 323 328 328 324 322 329 321 322 322 323 324 322 322 321 321 321 321 321 324 325 323 326 326 326 326
295 294 293 292 292 293 297 298 301 302 299 298 300 300 300 301 304 306 308 308 308 307 307 306 306 306 308 308 311 310 312 314 317 318 318 318 320 321 322 322 322 321 321 321 322 323 322 321 321 323 324 323 324 323 323 322 321 322 318 319 319 319 322 326 323 322 322 323 326 325 326 323 321 322 332 325 321 324 323 321 320 322 321 324 323 321 321 322 323 322 322 324 324 322 324 324 325
296 294 293 292 294 293 298 298 301 300 299 296 298 299 298 299 302 305 308 308 307 306 306 308 308 307 307 310 310 311 312 313 317 318 319 320 320 319 320 322 325 323 322 322 322 322 321 320 320 322 322 323 322 322 322 322 321 321 321 321 320 319 320 320 318 320 323 327 325 324 326 323 321 321 326 328 325 322 321 320 320 319 321 322 325 324 325 325 319 320 320 321 321 322 322 324 325
295 294 292 293 293 295 298 298 300 300 299 294 297 296 296 297 300 303 306 307 307 308 308 309 308 308 309 309 310 310 311 312 314 316 317 318 318 318 318 319 321 320 321 320 320 321 322 322 321 320 321 321 322 323 327 324 321 321 321 321 320 319 319 321 321 322 324 324 322 322 325 323 321 321 321 330 323 321 319 319 320 318 319 325 319 318 318 319 318 318 320 320 320 321 324 326 325
294 293 292 290 294 295 290 295 297 299 296 296 297 296 295 297 300 301 303 306 307 308 309 308 309 310 311 311 311 310 310 312 313 312 315 316 316 316 317 318 318 318 320 321 321 321 323 325 322 322 323 322 321 322 330 327 325 323 323 322 320 320 320 328 321 321 322 322 323 323 324 323 322 320 321 322 323 317 318 318 318 318 320 322 316 319 318 318 317 319 319 322 319 318 319 320 327
294 295 294 292 294 293 293 293 296 298 300 299 294 292 291 294 296 298 302 304 306 307 309 310 311 312 311 312 312 312 313 312 311 313 315 315 316 316 316 318 316 318 318 318 319 320 323 321 322 321 321 322 322 324 323 322 325 320 318 319 321 320 320 318 321 322 321 324 329 325 326 322 323 322 321 319 329 320 316 317 318 318 319 319 319 317 318 319 318 317 318 320 319 319 318 317 320
292 293 295 297 295 295 296 297 296 289 293 296 292 281 287 291 295 297 299 300 302 303 307 308 310 312 313 313 313 314 313 312 314 314 314 315 315 316 316 317 318 318 319 320 318 320 319 322 322 321 321 321 321 321 322 322 322 321 320 321 320 318 319 320 320 321 323 323 323 322 322 322 322 323 321 318 320 325 318 318 318 318 319 323 321 318 318 317 317 317 317 318 319 319 319 317 317
290 292 295 297 297 297 296 296 293 286 286 293 295 284 284 288 294 296 298 299 300 303 303 305 308 309 311 312 312 313 313 314 313 313 313 314 314 315 316 316 316 318 321 321 320 319 320 321 320 319 319 322 324 322 321 328 320 320 322 321 320 319 318 319 318 319 320 322 321 321 322 322 322 321 321 319 318 324 320 319 319 319 321 319 327 317 318 319 317 317 322 317 318 321 317 318 317
290 293 297 297 298 297 296 294 291 288 292 296 294 290 286 284 292 295 298 298 299 301 303 304 305 307 307 309 311 312 313 312 314 314 315 315 315 315 315 316 316 319 319 321 321 321 321 321 320 320 319 322 321 320 322 321 323 320 320 319 322 321 320 321 322 323 323 325 323 322 321 322 323 323 321 319 318 321 322 319 319 320 320 321 326 319 319 318 319 319 323 317 317 319 319 320 319
290 294 298 297 298 296 295 294 291 291 292 286 288 291 284 283 291 296 298 297 297 299 301 303 306 308 309 310 311 312 313 313 313 315 315 316 316 317 316 317 318 319 319 320 322 322 320 320 322 322 322 320 321 322 324 321 324 324 320 318 318 320 321 323 323 324 323 321 320 321 321 321 322 322 322 320 317 319 327 321 319 319 319 320 329 319 319 320 319 318 317 317 316 315 318 320 318
294 299 299 298 297 296 295 292 292 286 286 285 287 290 284 284 288 294 297 295 296 298 300 303 305 306 307 308 310 311 312 313 314 314 314 316 316 316 317 318 320 319 319 321 322 320 321 320 322 323 323 321 322 322 322 322 321 322 319 318 318 319 320 321 320 321 320 319 319 320 320 320 321 322 321 320 318 318 321 323 320 319 320 320 325 318 317 317 317 317 319 318 318 314 315 318 316
300 301 297 295 293 290 290 288 285 283 280 282 288 290 285 281 285 290 292 294 297 300 300 303 306 308 309 309 310 312 312 314 315 316 315 315 314 315 316 317 317 319 319 320 321 321 321 322 321 323 323 322 323 323 323 322 322 321 321 320 320 320 321 321 321 321 321 321 320 320 320 320 320 320 321 321 320 318 319 322 321 320 320 325 327 317 317 316 316 316 316 318 319 315 313 315 320
300 293 294 294 290 289 288 282 284 278 279 283 291 291 289 284 286 291 296 301 302 300 301 303 305 307 308 309 311 313 313 315 316 317 317 317 319 319 318 318 318 318 319 320 321 322 322 323 322 322 324 323 323 323 322 322 322 322 321 321 321 321 321 321 320 320 320 320 320 320 320 319 320 320 320 320 320 320 319 320 323 321 322 322 322 318 317 316 316 315 316 317 315 314 313 319 316
297 296 295 289 282 279 282 278 279 277 281 290 290 292 288 287 291 296 300 302 304 304 304 304 305 307 308 310 311 311 313 314 315 315 316 317 317 318 318 319 319 319 319 320 321 322 322 323 322 322 323 323 323 322 322 322 321 321 321 321 321 322 322 321 320 319 320 320 320 320 320 320 320 320 320 320 321 321 319 319 320 319 319 320 320 318 318 317 316 315 315 315 314 314 314 315 315
296 294 288 286 280 275 275 278 277 281 285 289 291 291 286 290 293 300 301 304 306 306 307 306 306 306 307 308 310 311 312 312 313 313 315 315 316 318 318 318 319 319 320 320 321 322 321 321 321 321 321 322 322 322 322 321 322 321 321 321 321 321 321 322 321 320 321 321 320 320 320 320 320 320 320 321 322 322 320 319 320 320 320 320 320 318 318 318 315 314 315 313 314 314 313 314 315
296 294 294 290 285 280 275 277 275 279 281 286 289 287 283 285 290 303 305 307 308 308 309 308 308 306 306 307 309 310 311 311 312 313 314 314 315 315 317 318 318 318 319 319 319 319 319 319 319 320 320 321 321 322 321 321 321 321 322 322 322 322 322 322 322 322 322 321 322 321 321 321 320 321 321 322 323 322 321 319 319 318 319 318 319 320 319 317 316 314 315 313 315 313 314 316 315
289 289 292 291 285 285 281 280 280 281 284 279 286 284 290 288 298 304 306 306 307 309 308 308 307 308 308 308 308 308 309 310 311 312 313 314 314 315 316 317 317 318 318 318 318 317 318 319 319 319 319 320 321 322 321 321 321 322 322 322 322 323 324 323 322 323 323 322 322 322 322 322 321 321 321 322 322 322 322 320 320 320 319 318 318 319 317 316 315 314 314 314 314 317 314 314 313
289 291 287 287 290 291 282 281 283 283 281 280 280 288 288 294 297 300 304 305 306 307 307 307 307 307 305 305 305 306 307 307 308 309 310 311 313 314 315 315 316 317 318 317 317 316 316 318 319 319 319 320 320 321 320 320 320 320 320 321 321 322 322 321 322 322 323 324 324 323 322 322 322 322 322 323 322 322 320 319 319 319 319 317 317 317 316 315 314 314 314 312 313 313 314 313 313
291 286 288 293 295 295 289 282 275 275 277 278 285 285 286 286 285 299 301 302 303 306 307 307 305 304 304 303 304 305 305 305 306 307 308 308 309 311 313 314 315 316 317 316 316 316 316 317 318 318 318 318 319 319 320 319 319 319 319 320 320 321 321 321 322 322 323 323 323 323 324 323 323 323 323 323 323 322 320 320 319 317 317 316 316 316 315 315 314 314 313 313 313 312 313 312 311
294 293 297 291 286 287 286 283 276 277 276 276 283 286 284 285 285 294 297 299 302 305 306 306 304 303 303 303 304 304 305 306 306 306 307 307 307 308 308 310 312 315 317 316 316 316 316 316 318 317 317 318 318 319 319 319 319 318 319 319 319 320 320 320 321 321 321 321 321 322 323 323 323 323 324 323 322 321 321 320 317 317 317 317 315 315 315 314 313 313 312 313 312 310 310 310 310
298 298 294 294 291 284 286 280 283 284 275 277 281 285 281 290 289 296 297 300 302 304 303 303 303 303 303 303 304 305 305 305 306 306 306 306 307 307 308 308 309 312 316 317 316 316 316 316 317 318 319 319 319 319 319 318 318 318 318 318 318 319 319 319 320 319 319 319 320 321 321 322 323 324 324 324 322 321 321 320 319 317 317 317 316 315 314 313 312 312 313 311 311 309 308 309 310
292 290 289 288 289 291 289 287 286 282 276 273 276 277 283 288 296 300 300 302 305 305 303 302 303 304 304 304 304 304 305 305 305 306 306 306 306 307 307 308 308 309 311 314 316 315 315 316 316 317 316 316 317 318 318 318 317 317 317 315 316 316 317 318 318 318 318 318 319 320 320 321 322 322 323 323 323 323 322 321 319 318 317 317 315 314 313 312 312 311 312 312 310 308 309 307 311
289 288 288 290 290 288 285 282 288 284 283 280 279 277 282 290 306 303 304 305 305 305 304 302 303 304 304 303 304 304 305 305 305 305 305 305 306 306 307 307 308 308 308 308 311 314 314 314 315 314 313 313 314 316 317 316 317 315 314 314 313 314 314 314 315 316 316 317 317 318 319 320 320 321 323 323 323 323 323 321 319 318 318 317 316 314 313 312 311 311 311 311 310 308 308 306 306
Wind_Speed
6 6 4 1 3 3 1 6 1 3 3 0 0 1 1 2 1 1 0 3 1 1 2 4 8 5 0 1 5 8 5 4 0 2 1 0 1 3 4 4 4 3 3 3 4 4 5 6 7 7 7 7 7 7 8 7 7 6 5 4 4 6 7 6 7 7 8 7 7 7 6 6 5 4 4 2 2 2 3 2 2 1 6 4 4 5 4 6 5 5 4 5 6 9 8 9 9
4 5 3 0 0 1 1 2 4 2 5 2 3 1 2 1 2 1 0 2 0 1 3 6 6 8 11 10 8 4 7 6 4 3 2 1 2 1 5 5 3 4 4 5 4 5 4 5 6 6 6 6 7 7 7 7 7 6 5 6 8 7 6 6 6 7 7 7 7 7 6 5 4 5 5 5 4 3 3 2 2 2 3 5 5 4 6 7 5 6 8 8 8 9 10 9 9
3 6 4 5 3 4 2 4 1 1 4 0 3 2 1 1 1 4 2 1 3 4 1 4 5 6 5 4 6 6 1 4 3 3 2 2 1 3 6 4 3 3 3 4 4 4 4 5 7 6 6 6 6 6 6 6 5 6 7 8 6 8 6 6 7 7 7 7 6 6 5 5 6 6 5 5 6 5 4 4 2 4 5 4 8 9 9 5 6 6 8 7 11 9 11 11 7
1 2 1 3 1 4 1 4 4 4 2 3 2 2 1 0 2 2 2 1 5 1 3 7 7 1 4 8 4 2 3 3 3 2 1 1 3 3 4 2 4 3 4 4 4 4 4 4 6 5 5 5 5 5 6 6 7 7 6 7 7 5 6 6 7 8 7 6 5 6 5 5 5 6 5 6 6 6 6 9 12 7 9 8 7 8 7 3 3 8 9 11 9 10 10 8 8
1 2 3 2 4 2 2 2 3 2 2 2 2 4 2 0 1 2 2 3 3 2 4 2 3 3 4 5 3 1 3 4 4 5 2 2 3 3 3 2 4 4 4 3 4 4 4 5 4 5 5 6 5 6 7 9 9 9 7 8 8 6 5 7 8 6 5 5 5 7 7 7 6 5 5 5 5 6 8 12 6 9 3 9 7 6 5 2 7 8 10 10 11 10 11 10 9
2 2 4 2 1 2 5 5 5 4 3 3 1 3 2 1 1 0 2 4 4 4 4 5 2 1 4 4 3 2 4 1 2 3 2 3 3 3 3 4 4 3 3 3 2 2 3 4 6 6 6 7 12 9 8 8 8 7 7 7 8 8 7 7 8 7 4 3 6 7 7 7 7 6 6 6 6 7 15 11 9 7 10 8 11 9 5 5 5 8 8 9 10 10 10 9 8
1 3 5 4 3 5 5 5 1 2 2 5 3 2 3 1 1 2 2 2 3 3 5 3 2 3 4 2 2 4 5 3 1 2 4 2 3 4 3 3 3 3 3 4 4 4 3 7 7 8 9 10 8 10 8 7 8 6 5 7 5 5 6 8 7 7 7 9 10 9 8 9 8 8 7 8 7 7 15 10 8 4 7 5 4 6 4 4 5 7 9 9 10 10 9 9 7
1 1 2 5 1 4 4 2 1 3 1 4 3 3 1 1 2 2 1 2 2 1 3 3 2 3 2 2 2 2 4 3 5 4 3 3 4 4 4 2 3 3 4 4 4 4 6 9 10 9 10 10 9 7 9 8 6 4 5 5 5 5 7 6 6 4 7 9 9 9 7 7 8 8 8 8 7 10 12 10 8 5 4 4 4 1 0 4 6 10 10 10 10 10 9 8 7
4 6 0 6 5 2 3 3 1 2 3 1 1 1 3 3 4 1 3 1 1 3 5 4 0 1 3 5 5 2 2 4 6 6 5 3 4 3 3 3 2 3 4 4 4 4 4 9 8 8 8 9 9 8 8 5 5 4 5 6 6 7 8 7 7 9 12 8 9 5 6 8 8 9 9 9 9 10 9 12 3 6 3 3 1 2 1 5 9 9 9 10 10 10 9 8 7
2 3 1 3 3 7 3 2 2 1 2 3 2 3 4 2 2 5 2 2 1 1 3 3 2 4 4 7 1 3 1 4 5 7 4 4 4 4 4 3 3 3 3 4 4 5 4 8 7 7 8 8 9 7 7 5 6 5 8 8 9 9 7 7 8 10 9 8 6 4 7 9 9 9 9 9 9 7 7 6 7 7 5 2 2 3 5 8 8 9 10 10 10 9 9 9 8
1 5 2 5 5 3 3 2 2 3 2 4 3 2 2 1 4 3 2 2 3 1 2 5 5 4 2 3 2 1 5 7 7 5 4 5 4 3 3 4 4 4 3 4 4 4 4 5 10 10 10 10 9 8 8 7 7 8 9 9 9 8 8 10 8 9 7 8 8 9 10 9 9 9 9 9 10 9 8 11 8 7 6 8 4 4 7 8 9 9 10 10 9 9 8 8 9
2 0 1 4 3 6 3 4 1 3 3 2 0 2 1 4 3 2 3 2 5 2 4 5 2 2 3 1 1 2 5 7 6 5 5 5 5 3 4 4 5 5 4 4 6 5 5 5 5 10 14 12 10 9 9 9 10 10 9 10 9 9 10 13 11 12 12 10 7 9 8 10 10 10 10 11 11 11 10 9 5 5 5 2 6 9 7 7 8 8 9 9 9 9 9 8 8
4 1 6 6 2 2 2 3 2 1 2 2 1 1 3 8 5 4 3 3 4 4 4 7 0 1 2 2 1 2 4 6 5 3 5 6 5 4 4 4 4 5 5 6 5 6 6 5 6 5 9 12 12 13 11 11 11 10 10 10 11 15 16 12 11 7 9 11 11 12 13 12 12 12 11 11 11 11 11 10 7 3 2 5 4 6 6 7 7 8 8 8 9 9 9 9 9
5 5 5 2 0 3 4 1 1 1 2 2 1 2 4 3 4 3 2 4 6 3 1 6 0 2 3 3 2 3 2 5 4 3 4 6 4 5 5 5 5 6 6 6 6 4 4 5 5 6 6 7 7 8 11 12 10 13 13 13 14 14 8 9 8 12 12 11 11 11 11 11 12 12 12 11 10 9 9 9 9 8 6 5 2 4 8 8 7 7 7 7 8 9 9 8 9
2 1 5 3 2 2 0 4 7 3 4 1 1 3 4 5 1 7 7 3 2 3 6 1 2 0 0 3 0 1 2 3 4 5 6 5 6 6 6 4 5 4 5 5 5 5 4 5 5 6 7 6 6 6 6 8 12 11 11 13 13 14 12 11 12 12 12 11 11 9 9 9 10 10 9 10 11 9 7 8 7 7 8 8 8 8 7 7 7 7 7 7 8 9 9 9 8
4 6 4 4 3 4 2 2 1 2 4 1 2 8 11 8 6 4 3 2 2 1 4 2 6 3 2 4 3 3 3 2 2 4 6 6 6 5 4 4 3 4 5 5 5 4 5 5 5 6 6 6 5 5 5 6 9 13 12 12 13 12 11 10 10 10 10 10 10 10 9 6 7 6 7 5 7 8 7 6 6 5 6 6 7 7 6 7 7 7 7 8 8 8 9 9 9
2 4 4 3 3 2 3 3 4 3 2 2 1 5 5 4 3 3 1 2 4 5 6 7 5 5 6 4 4 5 4 4 3 5 5 5 4 5 4 4 4 4 4 5 4 4 6 5 7 6 6 7 6 5 5 5 6 9 7 10 12 12 11 10 10 9 8 8 8 8 8 5 4 4 4 4 6 4 6 6 6 5 5 4 5 6 6 6 6 7 7 8 8 9 8 9 9
3 3 5 3 2 2 3 5 7 1 4 3 4 4 10 3 1 2 2 7 6 6 8 7 10 9 7 4 5 5 3 5 4 5 6 5 3 3 4 4 3 4 4 3 4 2 2 4 6 6 5 7 6 5 4 3 3 5 5 5 5 6 6 7 5 5 6 5 7 5 4 4 4 4 4 5 3 3 3 5 4 6 5 3 4 5 5 5 5 6 7 8 8 8 8 4 4
4 2 4 3 1 1 0 2 2 1 4 6 6 7 6 1 1 1 3 4 4 6 7 7 7 8 8 8 6 6 5 5 6 6 5 6 4 4 3 3 3 2 3 3 3 4 4 3 6 6 6 4 4 5 4 3 3 4 5 5 4 6 6 5 4 5 5 5 5 5 4 4 4 4 4 5 4 5 4 6 6 5 4 4 4 4 5 6 6 7 7 7 7 7 4 3 3
0 4 2 1 2 2 6 3 3 5 9 10 9 5 9 5 0 2 3 4 6 6 4 5 6 6 8 7 7 6 5 6 7 6 4 4 3 3 3 3 3 3 3 3 3 3 4 5 5 5 4 4 4 3 4 3 4 4 5 4 4 4 5 5 5 5 5 4 5 4 4 4 4 4 5 7 6 4 3 4 5 6 5 5 5 3 4 4 6 6 6 6 4 2 3 3 3
1 5 1 2 1 3 6 7 8 8 10 6 7 2 6 5 4 2 3 5 5 4 5 5 5 5 5 6 5 5 5 6 7 6 4 4 2 2 2 2 2 2 2 3 3 4 5 5 4 4 4 3 4 3 4 4 4 4 5 5 4 4 4 4 4 4 4 5 5 4 4 3 4 4 4 4 4 4 4 3 3 3 3 3 4 3 3 4 4 3 3 3 3 3 4 4 3
4 2 1 3 2 6 3 8 9 10 8 10 4 6 2 1 5 6 3 5 2 3 4 7 6 5 6 6 5 4 5 5 5 3 4 4 4 3 3 3 2 3 4 4 4 4 4 4 3 2 3 3 3 3 4 4 5 5 5 4 4 4 5 5 4 5 5 5 5 5 4 4 5 5 5 5 6 6 6 5 4 3 3 2 2 3 3 3 3 4 4 3 3 3 4 4 4
5 2 4 6 4 6 2 5 4 8 5 5 2 2 3 4 6 6 7 7 4 5 4 5 5 5 4 6 5 6 6 6 7 7 5 6 6 5 3 3 3 3 3 3 3 3 3 3 2 2 3 3 3 3 3 4 4 3 3 4 5 5 5 5 5 5 5 5 5 4 5 5 5 5 6 6 6 6 6 6 5 3 3 3 3 3 3 3 3 3 3 3 3 4 4 4 4
6 3 3 7 8 9 6 7 9 8 12 6 5 4 7 2 8 4 8 6 5 3 2 3 3 3 3 4 5 5 5 5 7 7 7 5 5 4 3 4 3 3 4 4 4 4 3 3 2 2 2 2 3 3 3 4 4 4 4 4 5 5 5 5 5 5 5 6 5 5 4 4 5 5 5 6 5 5 5 5 5 5 4 3 3 2 3 3 3 3 3 3 3 3 4 3 3
5 4 4 3 9 5 8 10 11 12 9 7 8 9 5 6 5 2 6 6 5 4 3 4 5 5 5 6 5 4 4 5 6 7 7 5 3 4 4 3 4 4 5 4 4 4 4 3 2 3 2 2 2 1 4 4 3 3 4 5 5 4 4 4 4 4 5 5 5 5 5 6 5 5 5 5 4 5 5 5 5 5 5 4 3 3 2 4 3 3 3 3 3 3 3 3 1
1 4 3 5 6 5 9 11 10 11 7 8 14 11 6 7 5 9 5 6 5 3 5 6 6 8 8 7 6 5 4 4 3 6 5 5 3 6 6 5 4 5 4 4 4 3 2 2 3 3 2 2 2 4 3 4 4 4 4 4 4 3 4 2 2 4 4 5 5 5 5 4 5 5 5 5 5 5 5 5 5 5 5 5 5 5 4 3 3 3 3 3 3 3 3 2 3
4 7 6 10 5 6 3 8 4 4 3 2 8 4 2 3 2 2 3 6 5 4 4 5 6 7 6 6 6 6 5 5 4 0 1 2 5 6 6 6 6 3 3 4 3 2 2 3 3 3 4 4 3 4 3 4 3 3 3 1 1 2 2 1 2 2 3 4 4 4 4 3 3 4 4 4 4 4 5 5 5 4 5 6 5 5 5 4 3 3 4 4 4 3 3 2 2
10 11 9 8 8 8 6 7 6 6 4 5 13 8 4 5 4 2 4 5 5 5 7 6 6 6 5 5 4 4 4 4 3 4 5 6 4 5 5 4 4 4 4 3 1 2 2 3 3 4 3 3 3 3 3 4 4 4 3 4 4 4 3 4 3 3 3 3 3 3 3 4 3 4 4 3 4 4 4 4 4 5 5 5 5 5 5 5 4 4 4 3 3 3 3 3 3
6 8 7 3 5 6 1 2 1 1 2 1 1 8 9 7 3 4 4 4 5 4 6 7 8 5 4 3 4 5 4 4 4 5 5 4 3 3 4 4 3 3 3 2 2 3 3 3 4 4 4 4 5 5 5 3 3 3 4 4 3 3 2 2 3 3 2 2 2 2 3 3 3 4 3 3 2 3 3 4 5 4 4 5 5 5 4 5 5 5 5 4 3 4 5 5 4
4 4 6 3 3 3 1 0 3 3 1 1 1 3 6 4 1 2 1 2 3 4 6 6 5 5 3 4 5 5 5 5 6 5 4 3 3 2 4 4 4 3 2 2 3 4 3 2 3 3 4 5 4 4 4 4 4 4 3 4 2 3 2 2 1 1 1 2 2 2 3 3 3 3 3 3 2 3 3 4 4 4 4 4 4 4 5 5 5 5 5 4 5 6 5 4 4
4 2 5 2 2 1 3 1 2 3 2 4 5 7 2 2 1 2 1 2 3 3 4 5 5 5 5 5 5 5 5 4 4 4 3 4 3 3 4 4 4 3 2 4 5 2 3 3 3 4 3 4 4 5 4 4 3 4 4 4 4 3 2 1 2 1 3 2 2 3 3 2 3 3 3 2 3 3 4 4 4 4 4 4 4 5 5 4 5 5 5 5 4 6 5 5 5
2 3 3 4 6 1 4 2 2 3 1 2 7 7 2 0 1 2 1 1 3 3 3 4 5 5 5 5 6 5 4 4 4 4 3 3 3 4 4 4 4 4 4 2 2 3 3 2 1 1 2 4 3 3 3 3 3 3 4 4 4 3 3 3 3 3 2 3 4 4 3 2 3 3 3 2 3 4 4 4 4 5 5 3 4 4 4 5 5 4 5 4 4 5 6 6 6
4 5 0 2 3 2 2 4 1 3 2 6 4 5 1 3 1 2 2 2 3 3 2 2 3 5 4 4 5 4 5 6 4 3 3 4 4 3 3 4 4 3 2 2 3 3 3 2 2 4 5 5 5 5 5 4 4 4 4 4 3 3 4 4 3 3 4 4 4 4 4 4 3 3 3 3 3 3 4 4 4 5 4 4 4 5 5 4 4 4 5 5 4 4 5 7 6
1 3 4 1 3 1 4 3 5 6 5 4 6 6 2 0 1 0 2 3 3 3 1 2 2 2 2 3 3 4 4 4 4 4 4 3 3 3 3 3 2 2 2 2 2 3 2 3 3 2 2 2 2 3 3 4 4 3 4 4 2 2 2 3 3 3 3 4 3 4 4 5 4 4 3 3 4 3 3 4 4 5 4 4 4 5 5 4 4 4 5 5 4 4 4 6 6
3 3 5 2 2 1 4 2 1 4 5 8 4 8 5 4 3 3 1 1 4 2 1 1 1 2 3 3 3 3 3 3 3 3 3 3 3 3 2 2 2 3 3 2 2 2 2 3 4 2 2 3 3 2 3 3 4 4 1 3 2 2 2 1 2 2 2 3 3 2 3 4 4 3 3 4 4 4 5 5 4 5 4 4 4 5 5 5 5 5 5 4 5 6 5 6 6
8 8 5 5 6 2 3 1 1 5 6 8 6 5 5 6 5 5 4 1 3 2 2 2 2 1 2 3 3 3 3 3 3 3 2 2 2 3 3 3 2 2 2 2 1 2 3 2 2 0 1 3 2 3 4 4 4 4 6 5 3 2 3 2 3 3 4 3 3 3 3 3 3 2 2 2 3 3 4 4 3 3 3 3 4 5 5 5 5 6 6 4 5 5 4 5 5
7 6 6 6 6 2 1 2 2 3 4 6 3 4 5 5 4 4 4 3 6 7 6 4 2 2 3 3 3 3 3 2 4 3 3 4 4 3 3 3 3 2 3 3 3 3 3 2 3 4 4 3 4 5 4 3 3 6 2 3 2 3 3 2 3 4 4 3 3 2 2 3 3 3 1 2 3 3 3 3 3 3 3 3 3 3 3 4 4 4 4 3 4 4 4 2 1
8 8 8 6 5 5 0 1 1 2 3 3 3 6 5 4 4 4 3 6 6 5 5 6 5 3 3 4 4 4 2 2 4 5 5 5 4 4 4 4 5 5 4 4 3 3 3 3 3 4 4 4 3 2 2 3 2 2 2 5 3 4 2 2 3 4 3 4 4 2 1 3 3 3 1 0 1 1 2 3 3 3 3 2 1 2 1 3 5 5 4 4 3 3 2 2 2
5 8 6 7 2 3 4 3 3 3 7 2 4 8 7 6 4 5 5 2 2 2 2 1 4 6 4 3 2 2 3 3 3 3 3 4 4 4 3 3 3 1 3 3 3 4 5 5 4 3 4 4 3 2 1 3 2 2 2 3 2 3 2 3 3 5 3 4 4 3 1 1 2 3 2 0 0 0 0 1 2 2 1 1 1 2 3 4 3 4 5 3 3 3 2 2 3
9 8 7 6 5 6 1 2 2 6 4 4 2 9 6 7 3 5 5 6 2 2 2 4 4 5 5 4 1 2 2 3 4 3 4 4 4 3 4 4 3 3 4 5 5 5 4 5 5 5 6 4 4 3 2 3 3 2 2 2 2 3 2 1 3 4 3 3 5 3 3 2 2 3 2 1 1 1 1 0 1 1 1 2 2 2 3 2 2 3 4 4 2 2 3 2 2
1 4 7 6 6 1 4 4 2 2 4 4 4 7 5 8 7 8 7 4 6 7 6 8 7 4 3 2 2 3 3 2 2 4 4 4 5 4 3 3 2 3 3 3 3 3 3 5 5 4 5 5 5 4 4 4 3 3 4 3 3 3 2 4 4 5 4 3 4 4 6 3 3 4 3 3 3 2 2 3 3 2 2 3 3 3 2 1 2 1 1 4 4 2 4 2 2
2 3 5 11 7 11 8 5 6 3 0 2 3 5 5 7 6 7 6 7 8 5 8 7 7 7 7 7 6 5 3 1 1 1 2 3 3 5 4 4 5 4 4 4 3 3 3 5 5 6 4 4 5 3 1 2 2 1 3 5 6 5 6 6 6 5 7 7 6 5 6 5 4 3 4 4 3 3 3 3 3 4 3 4 4 4 3 2 2 2 3 3 2 2 1 2 3
7 5 5 8 8 11 10 7 5 3 2 4 1 4 1 4 7 7 6 5 9 7 9 8 7 7 6 6 6 5 5 7 3 1 0 2 3 4 4 4 4 4 4 4 4 3 3 3 4 3 4 4 4 3 2 0 1 1 1 1 2 3 4 5 4 4 5 6 5 7 6 5 4 4 4 4 3 3 3 3 3 3 3 4 3 4 4 4 3 2 1 1 2 3 2 3 4
4 2 9 10 12 10 7 7 4 3 1 1 7 5 5 2 6 4 7 5 8 10 11 11 10 9 7 6 6 5 6 4 4 5 5 2 1 0 2 4 4 4 4 4 4 4 4 4 4 4 3 3 3 3 3 4 4 3 4 3 2 3 3 6 6 6 5 4 5 6 5 6 5 4 5 5 4 4 4 4 3 3 3 4 3 5 5 4 3 2 2 1 1 2 2 0 3
1 1 9 8 10 7 7 8 6 1 4 4 6 4 5 2 4 5 5 7 8 8 9 8 10 10 8 8 6 6 5 4 4 5 6 6 6 5 3 3 3 3 3 4 4 4 3 3 4 4 5 4 6 7 6 5 3 2 2 2 5 4 3 5 5 5 5 5 6 6 5 6 5 5 4 5 5 5 4 4 4 4 4 4 3 4 4 3 4 4 3 2 1 1 1 2 1
1 13 12 11 10 6 7 5 5 1 6 2 3 3 5 1 5 7 6 5 7 7 8 7 7 8 8 7 8 8 6 4 4 3 3 4 5 5 5 4 4 4 3 2 3 3 4 3 5 5 6 5 5 5 4 4 4 4 5 4 4 6 5 5 4 6 6 5 6 6 6 6 6 6 5 4 5 6 5 4 5 5 5 5 3 4 4 4 4 3 3 4 3 2 2 3 3
10 16 12 10 8 4 3 6 3 4 5 2 5 3 3 0 3 2 3 3 3 6 5 5 8 9 10 7 6 6 6 6 5 5 4 4 3 3 4 5 5 6 5 5 5 5 5 5 5 7 6 5 6 6 6 7 5 4 5 5 5 7 7 6 7 7 7 7 7 7 6 6 5 6 5 5 5 5 5 5 5 6 5 5 4 4 5 5 5 4 4 4 3 2 3 3 3
13 4 8 9 6 5 3 3 6 3 1 5 2 1 1 4 1 4 3 3 3 2 4 6 8 7 7 7 6 6 6 5 6 7 8 7 8 8 6 7 7 6 6 7 6 6 6 6 6 8 8 8 7 5 6 7 6 6 5 5 7 7 7 6 7 8 7 8 7 7 7 7 6 6 5 6 6 6 5 6 5 5 5 5 6 6 5 5 5 4 4 4 3 3 3 3 3
11 10 9 9 1 4 2 5 2 1 1 1 3 2 3 3 2 3 4 3 3 3 3 3 4 6 6 7 6 5 5 6 7 6 7 7 7 7 8 7 7 8 7 7 7 6 6 6 7 7 8 7 7 7 7 7 7 7 6 6 6 6 6 6 6 7 7 7 7 8 8 7 7 7 7 6 7 7 6 6 7 6 6 6 6 6 5 5 5 5 5 5 4 3 3 3 1
12 11 7 8 4 1 2 1 1 2 3 4 2 2 2 1 3 2 3 3 3 3 2 4 4 4 5 6 5 5 5 6 6 6 6 6 6 6 5 5 6 6 7 8 7 7 7 6 7 6 7 7 6 6 7 7 8 8 7 7 7 6 7 6 6 6 7 6 6 6 6 6 7 7 8 8 8 7 6 7 7 7 4 6 7 7 6 6 5 6 5 5 5 3 3 3 3
10 5 13 11 9 6 4 3 3 5 5 3 3 2 1 0 2 1 2 3 2 1 5 4 4 5 4 4 4 6 7 6 6 6 5 5 6 5 5 6 6 6 7 7 7 7 6 7 7 7 8 8 7 6 6 7 7 7 7 7 6 6 6 7 6 6 6 7 7 7 7 6 6 7 7 8 9 8 8 7 6 4 7 7 7 7 6 5 6 5 5 5 4 3 4 4 3
2 1 5 7 4 4 5 4 5 2 2 2 5 0 1 2 2 3 1 2 3 4 7 6 8 7 6 7 7 6 5 6 6 6 7 7 5 6 6 6 6 6 7 7 8 7 7 6 5 6 6 7 8 8 8 9 9 8 9 10 9 8 7 7 7 7 7 7 8 8 8 7 7 7 8 8 9 7 8 7 6 8 8 8 8 8 7 6 6 6 5 4 5 3 4 4 3
4 2 3 2 2 11 6 1 3 3 5 0 0 1 4 4 3 2 3 3 3 6 7 7 7 6 5 6 5 5 5 6 6 6 6 7 7 7 5 6 6 7 7 6 6 5 6 6 7 8 7 7 8 8 7 7 7 8 9 8 9 10 10 10 9 10 10 8 7 7 8 8 8 7 8 8 9 9 7 7 7 8 8 7 7 6 5 6 6 6 6 5 5 5 4 5 4
8 1 5 2 3 5 7 4 2 4 2 1 0 2 3 2 1 2 1 3 2 5 5 5 5 3 6 4 4 4 5 4 4 5 5 5 5 6 7 6 5 6 6 7 7 5 5 5 6 7 8 9 9 8 9 8 10 10 11 11 11 10 9 9 9 10 9 9 10 9 8 8 8 8 8 8 9 10 9 7 6 7 6 5 5 5 6 6 6 6 6 5 5 5 5 2 3
8 9 7 5 1 1 3 6 1 1 0 1 2 1 2 4 2 0 2 1 2 4 4 4 3 4 3 3 4 4 4 7 8 7 7 8 7 7 7 7 6 6 5 5 5 6 6 6 5 5 6 5 5 6 8 9 9 8 8 9 9 10 10 9 9 9 9 9 10 10 10 10 10 9 9 9 8 9 9 9 7 7 6 7 6 6 6 6 6 6 5 5 4 5 5 4 3
9 8 3 1 6 3 4 1 3 7 2 1 2 1 3 5 4 5 4 3 3 4 1 1 1 1 1 2 3 4 6 5 5 6 6 6 7 7 7 7 7 6 6 6 7 8 10 8 9 9 9 9 9 10 8 9 8 8 10 10 11 10 10 9 9 9 10 10 10 10 11 11 11 10 10 10 9 9 9 10 9 7 8 6 6 7 7 8 7 6 6 5 5 5 4 4 4
0 3 2 3 3 1 6 2 2 4 6 3 3 1 5 5 4 6 6 5 4 3 3 1 1 1 1 1 3 4 5 6 5 6 6 8 8 8 9 7 7 7 7 8 8 8 7 8 9 8 8 9 10 8 8 7 7 9 10 11 11 11 12 10 11 11 11 11 10 10 10 10 10 11 11 12 12 11 10 9 10 9 8 7 7 7 7 7 6 6 6 6 6 6 5 4 4
3 6 3 9 9 4 3 1 1 2 5 4 5 5 5 6 1 5 7 5 6 3 3 3 1 0 1 2 3 4 6 5 5 6 6 7 7 8 8 9 10 10 10 10 8 9 10 9 8 9 10 10 9 9 8 7 7 8 10 10 11 10 10 11 11 11 12 11 11 11 10 10 11 11 10 11 12 11 10 9 6 8 8 7 5 5 6 4 5 6 6 5 5 6 5 4 4
Wind_Direction
313 299 299 312 70 103 78 358 112 316 60 309 343 12 230 63 122 11 334 352 28 330 9 47 35 27 58 240 124 82 48 88 214 139 207 256 304 326 353 347 335 358 359 358 352 354 2 8 37 39 44 42 41 42 45 46 48 50 54 72 80 83 72 70 77 86 83 80 75 72 67 65 66 66 46 334 162 102 77 78 81 96 91 108 114 114 94 103 106 99 93 86 82 80 85 76 75
296 317 334 318 78 76 275 110 96 3 36 63 251 123 258 334 41 298 14 57 207 25 28 81 85 79 65 83 108 111 55 65 42 61 141 255 315 344 4 348 338 4 355 355 3 3 360 347 32 38 45 45 42 43 43 44 40 44 51 61 57 57 68 67 70 71 68 66 63 61 59 56 55 54 47 53 73 69 36 39 101 67 105 111 128 119 81 58 79 67 70 70 68 71 75 84 72
317 1 3 30 27 74 89 36 24 35 87 20 278 217 329 37 262 294 328 348 122 124 78 67 78 43 27 34 22 11 230 18 61 80 57 330 294 360 346 333 22 16 14 3 7 6 0 348 25 37 46 47 42 37 38 37 41 41 50 58 51 50 43 66 68 65 64 59 63 62 65 62 52 45 48 50 42 38 24 28 46 41 38 90 79 70 72 83 61 90 81 73 77 73 65 70 80
1 40 29 49 276 33 55 29 81 117 112 210 295 296 30 218 291 297 355 352 90 34 30 36 39 354 61 44 39 346 88 112 346 334 126 59 15 350 326 359 35 15 26 20 351 356 340 353 13 38 46 48 46 42 33 30 33 42 47 64 64 48 46 53 61 60 59 60 52 64 68 68 54 49 41 44 46 42 44 47 39 27 38 52 75 92 110 161 141 84 74 70 75 67 80 72 60
32 339 81 99 101 355 94 91 127 101 105 208 175 279 256 195 268 353 358 6 34 30 26 87 69 21 89 65 345 329 29 93 71 19 43 36 22 352 333 39 35 24 18 5 7 355 337 20 29 46 43 37 39 36 30 33 38 41 34 41 41 48 33 46 59 61 57 40 53 63 59 52 47 47 42 40 38 50 60 72 67 63 41 45 40 52 19 46 77 72 67 63 60 60 57 55 51
43 37 359 79 63 166 51 39 27 80 208 158 226 254 231 203 174 208 346 23 9 59 42 61 100 10 49 36 5 68 346 53 65 63 350 22 31 353 7 50 44 32 6 8 16 327 317 22 40 32 34 36 41 36 37 48 44 48 38 49 43 29 29 44 50 47 60 22 57 59 46 47 47 41 41 36 30 46 67 51 71 65 49 31 14 9 8 6 64 73 71 67 64 62 58 55 49
314 39 357 25 17 54 128 129 165 179 239 178 212 234 211 201 171 76 14 24 2 66 39 102 88 88 88 128 63 57 46 353 303 54 29 45 31 19 39 41 52 30 3 1 357 353 358 38 43 37 39 47 57 37 53 52 48 46 50 56 54 43 47 47 51 38 25 17 35 25 26 42 41 39 33 36 19 41 83 79 74 42 77 85 147 249 30 25 30 61 59 62 64 62 60 58 53
100 118 324 90 18 60 71 157 113 178 252 175 216 174 148 88 87 71 20 71 318 10 29 108 86 101 92 357 151 62 55 35 79 77 67 52 49 35 47 45 47 19 9 5 9 12 24 40 39 51 46 52 54 53 45 40 53 74 48 61 65 60 59 44 57 60 64 47 41 2 16 37 37 35 34 40 30 32 88 91 87 105 78 115 169 203 109 34 44 44 44 44 48 49 48 47 44
360 87 314 70 58 48 77 70 173 251 281 298 147 117 103 108 100 89 37 346 32 28 30 360 96 75 100 56 54 56 72 86 78 73 59 39 51 40 39 42 54 25 15 14 13 16 26 39 35 43 54 47 50 50 68 61 60 36 68 66 70 75 66 50 53 58 57 46 56 348 17 38 35 29 26 25 29 34 69 111 99 100 119 125 129 85 66 54 46 39 35 34 33 34 32 28 25
32 88 342 113 143 82 72 328 73 221 266 321 341 28 6 6 81 82 100 23 38 11 61 61 48 117 130 84 86 328 26 80 96 67 38 41 38 46 41 33 37 42 34 27 26 21 19 34 17 54 63 80 90 81 74 62 76 60 53 49 52 62 89 82 49 50 56 54 37 21 34 38 36 29 23 16 15 30 40 75 124 130 130 121 112 109 59 52 46 37 27 23 24 23 20 18 15
18 11 136 73 46 93 124 205 282 314 303 336 330 355 26 64 76 59 54 104 17 55 351 17 58 71 97 69 62 305 52 48 49 56 43 60 52 35 35 45 30 48 46 27 39 26 20 25 37 44 53 51 55 62 83 76 54 53 49 48 45 49 47 64 48 51 57 48 35 31 28 38 34 29 22 18 13 13 21 51 27 65 47 3 3 48 50 45 40 33 24 16 10 9 9 11 14
33 14 20 104 140 146 206 145 226 275 312 357 299 9 6 77 66 52 12 66 340 352 51 352 155 162 62 130 69 29 53 51 48 57 62 55 52 52 46 39 47 41 47 45 35 17 31 27 21 31 42 43 51 53 53 50 50 47 42 39 39 39 39 35 44 32 37 36 25 41 36 33 29 26 22 16 16 9 10 65 52 38 56 95 358 358 46 39 35 30 18 8 359 355 356 5 12
113 104 83 75 154 79 157 118 214 305 345 283 211 349 43 55 52 72 66 63 4 25 25 354 217 93 102 93 123 67 56 60 52 38 55 64 57 48 32 38 38 37 35 32 40 24 28 28 25 25 32 36 33 40 43 41 42 44 42 36 33 34 27 32 29 44 37 27 25 23 22 26 22 18 14 15 13 9 10 25 48 36 37 63 26 303 33 34 30 24 11 359 350 347 348 354 8
113 176 113 103 335 104 133 178 16 100 271 246 195 59 41 55 30 60 108 36 7 40 319 302 278 73 73 80 357 69 38 50 62 49 55 56 66 68 52 41 36 35 41 45 41 26 18 29 30 30 32 28 26 24 27 38 35 32 31 39 43 54 42 25 29 30 31 32 26 28 22 22 21 19 13 8 3 3 5 16 10 16 22 45 54 336 29 27 18 15 9 351 342 338 342 351 1
98 152 86 115 80 94 204 125 198 163 242 233 351 67 62 25 125 64 59 90 351 324 305 273 342 313 273 114 280 102 85 66 63 75 73 62 50 51 59 38 56 49 48 43 40 15 21 29 30 29 31 30 26 32 29 11 31 50 32 31 34 44 38 23 20 27 31 24 25 25 27 27 20 15 7 4 356 348 359 358 358 8 6 5 14 19 16 17 14 6 359 348 334 334 338 344 352
144 84 81 106 173 135 236 132 71 136 255 109 10 113 80 36 36 57 1 186 215 350 15 0 31 37 55 73 117 119 92 70 69 72 68 58 51 43 43 46 44 44 57 44 34 21 11 31 28 29 30 26 28 36 26 15 22 33 33 32 31 37 36 35 24 27 28 22 20 20 22 27 19 2 357 352 340 346 340 344 350 359 0 359 5 7 10 7 2 356 347 337 333 331 335 337 342
57 82 58 55 163 152 222 139 144 201 228 77 71 49 75 58 8 86 207 68 74 41 45 35 45 34 56 79 110 96 67 96 85 66 59 47 47 38 35 28 35 38 45 41 33 13 26 18 36 36 32 31 29 27 20 21 11 28 25 26 31 29 33 27 25 23 21 13 19 16 21 20 16 352 334 315 320 322 321 331 348 348 356 356 354 356 353 352 348 342 335 330 327 331 333 337 336
58 59 116 61 183 129 201 169 184 216 121 101 54 65 101 105 294 272 335 48 60 58 61 67 63 58 56 50 55 52 38 52 38 59 48 49 35 40 45 42 27 41 36 35 33 27 20 32 36 35 31 32 37 34 21 8 8 16 26 22 20 29 18 25 10 19 16 6 7 10 13 0 346 324 317 307 295 282 292 310 328 347 354 356 346 345 342 334 335 330 327 327 330 335 338 346 324
86 114 77 164 194 328 142 219 122 62 73 90 69 48 84 21 243 292 74 36 19 55 51 59 70 51 42 49 41 29 29 37 34 50 57 60 53 48 38 42 32 8 20 32 16 9 14 34 38 37 34 22 29 33 26 8 7 15 30 24 14 23 16 18 10 12 8 359 359 3 354 334 329 329 310 309 321 330 333 319 324 327 350 2 352 351 342 332 324 319 318 325 335 343 347 316 310
23 106 64 1 207 80 26 61 72 75 110 80 71 36 73 311 326 1 77 64 29 41 42 37 51 43 43 33 26 30 27 39 40 37 39 73 56 50 51 48 32 23 21 21 24 15 12 31 33 33 36 38 34 13 23 19 16 17 20 13 13 17 12 7 9 7 358 352 354 350 345 331 337 323 322 335 344 337 316 335 347 0 358 354 339 5 335 327 321 313 312 315 337 335 311 298 281
317 64 140 119 237 62 347 56 70 69 86 91 88 106 69 357 12 43 98 71 37 16 25 28 46 39 42 35 25 16 32 38 47 29 21 53 41 69 88 103 48 4 324 33 19 12 13 27 17 19 32 33 49 27 37 20 20 21 9 5 6 10 7 10 9 359 346 338 342 342 334 333 334 330 333 343 353 345 353 355 357 9 2 338 342 328 320 317 323 312 314 322 318 314 308 292 284
76 99 162 107 52 62 351 65 64 89 77 88 80 69 90 292 39 40 21 94 48 347 18 35 42 38 45 49 38 37 36 39 69 53 46 46 52 44 43 37 22 27 24 34 16 15 17 28 28 354 22 14 29 37 29 28 33 21 6 348 3 1 14 10 359 351 343 346 343 339 345 353 351 357 4 9 15 12 17 13 8 358 3 343 318 299 297 307 307 305 302 303 298 287 284 286 283
91 28 40 36 67 114 357 46 28 77 74 73 70 87 94 71 82 38 46 54 35 37 58 57 49 43 52 57 47 43 35 28 31 42 40 45 33 23 31 48 58 34 28 30 25 29 34 28 24 29 20 359 23 29 43 40 25 11 328 347 21 0 21 9 352 345 342 343 347 347 360 358 2 9 9 14 19 10 24 14 11 5 349 337 322 306 295 290 281 293 291 284 284 276 272 272 275
92 108 59 28 67 74 74 82 85 80 90 81 97 111 83 125 80 18 59 41 50 62 36 52 60 51 59 80 60 54 41 37 41 35 35 35 51 47 37 56 48 65 51 27 27 8 25 12 20 39 14 34 6 6 48 37 9 13 354 15 20 19 29 8 351 352 352 357 355 350 353 15 20 19 18 20 9 14 21 7 10 20 4 341 332 320 309 301 278 268 277 273 271 263 271 277 281
83 78 75 106 62 76 88 93 85 86 78 98 88 79 70 65 82 84 39 18 27 54 63 51 47 55 52 59 48 40 37 31 43 38 36 22 6 47 42 53 56 59 52 45 48 41 357 336 19 41 16 35 349 1 50 22 28 26 8 12 14 26 23 4 350 356 11 354 356 355 355 15 21 25 28 15 4 26 10 13 14 11 5 2 338 320 287 305 308 295 284 280 267 274 264 268 240
68 104 88 73 86 86 96 87 88 90 83 89 89 88 95 107 102 54 7 7 10 41 51 54 59 50 48 49 49 46 44 38 25 55 28 13 5 42 27 22 32 48 47 45 38 40 7 320 19 21 350 34 29 36 34 37 20 32 13 10 348 21 359 339 25 25 1 13 1 357 359 25 31 28 26 16 28 18 12 10 16 4 1 354 1 358 337 306 309 315 312 295 295 288 279 289 61
96 77 78 97 114 108 29 107 114 106 100 190 99 110 125 297 13 8 344 353 350 30 48 53 59 63 48 48 48 42 46 40 40 128 169 81 30 42 28 31 26 359 43 54 35 7 343 9 4 3 9 31 28 40 29 42 35 31 4 313 337 16 334 2 29 51 27 21 356 347 9 24 52 42 42 30 30 25 18 16 12 353 11 358 350 347 338 347 325 313 316 315 314 305 318 3 70
96 106 78 58 76 76 85 81 121 109 89 133 94 85 82 16 50 11 312 339 355 26 14 23 59 69 55 43 28 25 36 32 33 48 41 39 18 26 28 25 22 15 39 31 14 333 9 12 2 11 13 18 34 23 21 27 27 7 7 12 10 356 354 13 12 25 29 10 360 360 5 28 44 53 55 44 53 39 32 21 8 14 355 346 350 340 343 344 340 332 324 320 300 305 17 21 71
123 110 86 42 57 82 72 113 266 17 151 192 113 65 30 12 33 308 300 347 10 32 18 8 6 40 53 42 39 34 26 24 27 48 44 45 31 20 43 24 39 37 21 20 6 36 19 344 13 359 1 19 32 18 14 8 5 5 4 3 347 349 355 2 21 23 7 32 18 358 5 24 35 47 45 50 48 50 39 33 16 9 351 345 342 337 332 350 1 357 353 359 344 41 50 53 72
89 21 104 54 20 44 353 103 12 56 313 94 145 44 317 351 312 283 315 43 20 32 15 359 353 6 37 35 39 24 14 29 35 33 30 33 29 359 45 10 37 36 30 333 23 23 355 346 359 353 15 15 16 17 15 3 356 347 358 344 339 340 357 9 14 16 51 43 17 10 15 32 37 19 35 41 51 61 44 36 12 359 348 340 337 352 8 357 355 1 349 0 10 38 61 71 74
108 158 61 76 56 10 322 83 346 71 314 27 77 104 8 349 333 312 304 105 60 28 11 353 351 359 10 27 32 28 10 22 36 27 18 30 15 14 33 25 21 19 21 25 28 359 27 8 356 10 360 8 13 2 4 348 348 346 344 332 332 326 351 30 342 358 41 8 24 19 23 28 36 20 5 17 33 37 40 18 2 336 327 343 9 359 5 5 358 357 351 2 4 59 73 72 81
18 52 336 335 85 292 311 349 63 60 315 80 92 61 26 299 273 313 316 88 85 48 24 4 352 353 9 20 28 23 352 346 25 24 18 11 5 17 22 21 22 25 29 350 12 38 42 8 315 344 3 13 357 348 337 328 327 330 328 335 346 4 360 17 1 360 8 8 16 358 6 3 56 22 18 8 37 36 30 11 343 337 347 358 18 9 20 17 346 359 1 3 41 59 89 89 88
10 101 171 48 42 336 16 10 20 25 215 19 98 151 147 55 347 294 329 87 90 97 42 25 15 6 15 27 26 24 6 354 8 16 9 1 359 13 7 22 38 38 24 5 28 26 37 360 5 21 9 352 347 342 344 346 349 355 354 347 1 357 8 354 350 345 17 15 2 357 354 353 29 10 8 16 36 32 22 12 350 354 350 2 20 9 23 359 8 9 9 12 36 79 77 96 89
2 29 105 220 120 42 52 312 21 22 79 58 21 87 74 89 5 290 351 98 95 73 30 6 14 22 341 19 27 18 23 354 3 356 347 352 344 4 2 38 30 34 26 17 3 33 354 334 344 352 17 343 318 312 320 324 330 350 2 350 0 8 352 332 332 359 15 353 352 359 349 354 2 358 1 2 17 13 34 14 1 6 3 4 24 19 4 349 355 35 40 14 30 61 66 95 96
186 78 88 48 18 92 136 105 354 53 19 84 64 72 56 23 19 47 14 63 90 92 121 95 43 27 359 15 28 13 7 16 342 335 329 339 0 347 5 4 14 31 33 20 28 8 5 349 351 337 11 341 323 309 323 344 345 344 25 352 355 349 354 324 16 341 340 343 339 355 350 2 352 353 359 11 13 1 1 10 14 360 5 9 23 21 7 360 5 13 54 40 41 66 83 95 105
155 145 146 130 115 87 101 184 29 98 52 54 45 78 44 19 2 351 4 62 89 76 129 64 43 42 11 27 21 18 8 12 322 326 331 355 11 355 359 358 352 27 38 34 35 16 18 2 3 326 341 329 322 358 359 351 348 359 331 348 357 339 340 340 349 313 310 327 325 17 358 355 350 341 11 30 37 5 3 10 343 9 12 16 35 27 2 4 0 3 22 46 55 61 70 102 115
103 85 101 123 108 44 2 50 97 70 79 23 41 50 33 12 354 337 334 356 29 20 18 35 64 51 52 38 31 9 16 350 309 307 341 17 27 6 8 20 4 352 41 20 28 12 7 337 348 354 324 339 14 359 352 1 344 334 349 10 307 280 286 325 320 310 310 303 320 23 19 339 334 329 356 55 54 2 353 2 354 354 3 27 52 30 320 339 3 357 358 12 42 56 52 44 68
116 108 108 108 105 125 314 124 28 337 112 349 24 50 21 353 346 345 344 34 16 5 10 15 7 61 53 45 23 13 318 305 356 15 6 18 15 9 10 24 25 27 344 0 14 327 322 345 9 323 332 335 6 341 291 307 254 241 256 276 271 276 292 286 305 326 320 317 317 338 26 324 321 310 315 116 114 60 350 1 2 329 338 355 18 337 348 14 17 28 14 12 25 61 9 314 303
100 120 124 100 88 114 37 57 18 23 79 347 43 61 18 354 356 13 25 15 340 32 100 21 25 14 31 53 58 21 14 348 351 356 1 3 3 8 20 24 15 342 301 335 332 348 358 349 336 330 325 337 332 307 277 290 266 254 199 257 212 284 250 222 223 249 273 287 290 286 245 296 294 298 305 273 116 26 123 348 358 298 321 309 106 29 20 30 12 32 44 74 334 11 337 294 337
116 118 111 150 185 129 89 310 28 14 118 173 130 74 30 1 345 32 24 22 8 10 38 31 41 34 8 358 24 55 57 18 3 333 333 341 349 355 9 10 343 350 6 354 354 350 342 344 338 338 332 333 317 306 291 275 245 237 238 245 259 213 260 285 268 267 289 313 292 281 271 210 227 252 263 206 185 186 199 175 195 126 191 162 164 118 62 25 9 28 49 52 115 8 354 306 348
29 133 128 142 161 71 130 191 92 12 39 89 58 48 7 9 3 358 354 349 37 5 10 17 9 20 356 7 55 56 47 54 23 349 345 350 358 346 325 309 325 15 347 346 335 336 325 315 313 319 319 316 310 318 321 309 333 2 350 343 357 348 344 355 351 320 303 279 279 275 262 229 222 238 245 223 193 212 202 183 162 172 173 161 148 137 143 213 269 240 161 75 67 108 344 311 314
113 254 183 158 140 113 104 113 93 27 16 357 87 56 4 322 349 2 331 358 20 342 28 5 357 359 6 3 346 355 25 95 76 13 320 306 320 334 346 349 6 349 354 330 318 304 314 321 332 335 333 331 326 323 309 51 41 12 2 6 348 350 331 333 328 312 318 316 295 295 298 267 255 251 249 229 207 201 210 183 177 158 152 170 176 180 182 175 268 287 249 141 141 179 185 20 328
132 224 142 128 124 119 122 111 77 55 111 295 57 124 70 317 11 336 338 359 18 4 19 356 1 357 357 348 344 347 352 350 5 59 65 15 341 348 339 349 339 342 332 329 327 327 328 332 333 324 313 314 317 318 298 224 1 23 2 308 265 273 288 274 251 272 274 285 296 293 284 297 275 262 266 245 230 229 221 192 181 179 170 185 179 160 182 197 207 185 295 156 186 143 126 5 323
169 207 131 122 116 118 114 95 99 165 223 322 51 83 120 350 334 333 321 45 16 17 3 1 353 351 352 344 340 338 341 354 351 346 351 360 333 103 315 305 319 314 309 333 350 353 359 344 335 333 315 313 315 328 350 352 335 329 349 347 301 281 254 268 282 284 273 269 287 282 291 284 284 255 257 263 240 238 222 216 195 173 177 190 181 187 193 203 200 184 154 172 244 169 171 57 286
206 97 108 105 112 108 96 90 87 86 105 23 340 9 65 337 295 314 13 39 0 1 353 351 356 349 349 352 350 338 334 345 0 357 350 344 337 331 329 320 295 298 329 339 327 320 324 342 338 342 343 337 354 11 9 4 3 341 320 316 317 297 280 287 301 305 307 313 300 293 287 282 282 272 245 252 253 238 231 210 202 203 202 217 194 188 197 180 197 187 165 156 150 255 192 150 134
213 108 83 85 77 60 83 96 91 1 66 36 323 16 106 316 297 351 350 52 359 330 327 325 346 351 338 352 348 350 352 1 5 3 350 348 338 330 328 317 338 337 315 301 310 328 349 352 354 342 330 355 10 7 352 336 1 357 356 335 325 313 322 316 325 319 322 319 315 311 311 308 303 301 284 259 260 246 244 222 200 204 209 212 208 197 182 190 191 190 195 184 168 178 267 180 183
141 91 91 68 50 51 35 67 88 53 34 270 269 300 128 66 290 281 3 330 273 315 321 331 349 355 346 345 353 355 358 2 4 5 12 356 331 339 345 354 330 336 343 350 352 353 346 360 351 341 334 347 7 343 337 336 343 353 341 337 328 324 324 325 329 326 325 327 325 319 317 311 305 288 289 279 260 266 257 237 217 216 214 210 205 196 207 206 209 193 194 189 180 172 173 184 185
114 103 111 84 18 18 25 342 33 86 289 273 302 39 88 123 307 302 243 293 294 230 299 341 343 341 343 331 345 354 3 4 8 17 9 10 12 9 9 7 356 343 353 358 349 350 352 349 359 346 342 346 341 338 339 343 342 337 340 333 328 325 324 323 321 316 316 314 315 314 315 317 312 308 295 286 273 248 237 241 232 233 226 222 216 206 205 207 206 178 174 202 201 188 185 164 161
91 102 91 107 157 36 219 1 10 13 158 268 296 314 26 50 213 250 312 328 315 265 258 357 343 338 340 330 343 344 360 12 15 7 11 13 14 5 5 360 5 4 358 351 350 348 354 357 1 358 347 348 334 333 349 341 345 343 342 333 325 324 324 320 314 311 308 308 309 312 315 313 313 316 309 298 279 261 242 232 224 219 226 223 226 211 212 205 197 186 190 195 175 193 201 165 152
120 129 127 105 119 52 195 275 312 331 301 253 280 29 99 254 302 256 280 290 274 277 11 28 5 339 323 319 336 358 15 24 13 13 17 17 10 4 8 11 10 6 6 5 2 8 4 7 4 13 355 358 354 340 341 347 343 337 334 332 330 332 327 326 318 312 309 302 299 296 297 297 300 294 295 289 280 279 256 241 225 218 224 246 237 220 211 204 193 193 195 194 195 192 155 180 181
155 147 153 166 153 157 198 189 177 195 196 259 316 76 251 81 238 257 244 278 287 297 37 18 14 7 319 287 356 18 17 16 16 20 19 14 9 13 16 19 18 16 15 14 15 16 19 22 19 19 13 3 8 1 350 350 343 341 340 337 336 339 332 330 325 315 310 313 310 304 297 294 290 291 288 286 288 279 268 252 238 191 225 223 235 227 213 196 197 199 195 202 188 187 169 167 182
48 153 57 101 204 135 120 204 132 159 126 13 1 128 196 201 247 268 319 335 26 26 33 22 9 357 353 14 14 4 8 15 17 20 12 12 13 19 22 17 18 19 17 19 20 17 24 21 25 29 22 8 8 9 8 3 358 355 359 357 352 349 344 337 333 333 326 320 314 310 307 303 298 295 293 291 285 280 275 265 230 219 218 217 219 214 206 196 194 195 204 180 187 185 172 180 187
237 83 165 207 153 107 107 57 40 91 58 343 182 341 316 301 337 310 7 27 17 38 30 15 5 349 10 21 12 17 21 29 24 22 13 8 10 12 17 17 18 19 22 23 23 21 25 24 26 25 19 19 15 9 8 5 1 6 3 1 360 358 356 354 345 338 334 328 321 316 310 307 301 299 298 297 295 292 283 270 247 240 230 222 219 214 207 208 192 198 196 186 188 196 184 201 162
93 148 215 154 120 114 119 137 334 57 127 251 77 212 287 32 286 313 13 35 12 48 24 2 8 3 42 15 24 27 29 25 30 32 29 28 24 18 9 13 19 25 26 25 23 19 26 27 26 26 22 18 8 10 9 9 8 10 6 6 4 4 359 354 352 347 344 341 340 336 330 326 323 313 307 305 304 301 299 285 261 253 249 248 236 212 203 228 201 199 198 195 191 166 179 149 186
158 172 153 98 199 225 0 90 103 125 230 250 338 222 253 175 239 201 233 166 98 49 19 11 5 27 38 36 32 30 33 39 30 25 24 22 22 19 17 14 17 27 26 29 23 24 27 23 20 31 23 12 11 14 12 11 14 7 6 1 2 360 359 355 351 348 349 350 347 344 340 332 328 327 321 315 307 302 300 293 274 266 251 234 216 211 203 220 209 190 192 188 177 167 166 174 201
60 86 67 328 93 147 105 185 167 106 179 82 273 61 245 212 214 180 193 190 123 85 356 6 289 23 15 31 41 44 46 40 32 27 28 28 29 29 28 24 22 18 25 20 23 24 23 14 17 10 8 10 11 12 8 11 2 7 1 3 2 360 357 355 349 351 352 353 347 345 342 341 337 330 329 324 315 308 304 304 301 277 264 258 236 226 207 210 198 190 182 182 186 170 162 168 183
118 22 354 16 25 215 111 54 72 153 158 163 147 293 271 262 205 157 178 163 133 139 138 220 246 47 351 359 49 62 52 42 32 32 29 30 27 25 24 24 25 26 24 20 15 19 17 16 15 10 12 5 3 359 2 3 3 4 9 9 3 1 357 353 351 352 353 350 348 348 346 339 335 342 338 335 331 325 320 313 309 309 285 253 245 241 217 209 196 191 189 189 177 185 174 182 178
168 156 194 159 130 132 128 243 59 77 111 183 134 232 268 273 160 158 143 150 130 161 133 199 201 174 51 27 44 57 62 41 41 33 35 31 29 26 25 27 28 29 22 20 15 24 24 22 14 15 18 18 3 360 358 356 5 14 20 11 6 4 0 358 357 354 353 349 346 345 341 341 344 337 341 338 336 332 325 323 307 303 297 290 299 302 299 273 212 196 196 177 188 194 185 178 182